TimeCST,TemperatureF,Dew PointF,Humidity,Sea Level PressureIn,VisibilityMPH,Wind Direction,Wind SpeedMPH,Gust SpeedMPH,PrecipitationIn,Events,Conditions,WindDirDegrees,DateUTC
12:15 AM,-3.6,-10.1,74,30.63,10.0,North,3.5,-,N/A,,Clear,10,2013-12-07 06:15:00
12:35 AM,-4.0,-10.1,75,30.63,10.0,North,3.5,-,N/A,,Clear,350,2013-12-07 06:35:00
12:55 AM,-2.4,-9.4,72,30.63,10.0,North,4.6,-,N/A,,Clear,360,2013-12-07 06:55:00
1:15 AM,-2.4,-9.6,71,30.63,10.0,North,3.5,-,N/A,,Clear,10,2013-12-07 07:15:00
1:35 AM,-3.5,-10.3,73,30.64,10.0,Calm,Calm,-,N/A,,Clear,0,2013-12-07 07:35:00
1:55 AM,-5.8,-12.3,74,30.64,10.0,Calm,Calm,-,N/A,,Clear,0,2013-12-07 07:55:00
2:15 AM,-5.6,-12.1,74,30.64,10.0,NNW,5.8,-,N/A,,Clear,330,2013-12-07 08:15:00
2:35 AM,-4.9,-11.2,74,30.64,10.0,NNW,3.5,-,N/A,,Clear,340,2013-12-07 08:35:00
2:55 AM,-4.9,-10.8,76,30.63,10.0,North,6.9,-,N/A,,Clear,350,2013-12-07 08:55:00
3:15 AM,-6.2,-12.3,75,30.63,10.0,Calm,Calm,-,N/A,,Clear,0,2013-12-07 09:15:00
3:35 AM,-6.3,-12.3,75,30.63,10.0,Calm,Calm,-,N/A,,Clear,0,2013-12-07 09:35:00
3:55 AM,-5.4,-11.7,74,30.63,10.0,Calm,Calm,-,N/A,,Clear,0,2013-12-07 09:55:00
4:15 AM,-5.8,-11.7,75,30.63,10.0,Calm,Calm,-,N/A,,Clear,0,2013-12-07 10:15:00
4:35 AM,-5.3,-11.2,76,30.63,10.0,Calm,Calm,-,N/A,,Clear,0,2013-12-07 10:35:00
4:55 AM,-4.5,-10.3,76,30.61,10.0,North,3.5,-,N/A,,Clear,360,2013-12-07 10:55:00
5:15 AM,-3.5,-9.4,76,30.61,10.0,North,3.5,-,N/A,,Clear,10,2013-12-07 11:15:00
5:35 AM,-3.1,-9.4,74,30.61,10.0,Calm,Calm,-,N/A,,Clear,0,2013-12-07 11:35:00
5:55 AM,-3.1,-9.4,74,30.62,10.0,Calm,Calm,-,N/A,,Clear,0,2013-12-07 11:55:00
6:15 AM,-2.6,-9.2,73,30.62,10.0,Calm,Calm,-,N/A,,Clear,0,2013-12-07 12:15:00
6:35 AM,-2.4,-8.7,75,30.63,10.0,Calm,Calm,-,N/A,,Clear,0,2013-12-07 12:35:00
6:55 AM,-2.2,-8.9,73,30.64,10.0,Calm,Calm,-,N/A,,Clear,0,2013-12-07 12:55:00
7:15 AM,-1.8,-8.5,73,30.64,10.0,Calm,Calm,-,N/A,,Clear,0,2013-12-07 13:15:00
7:35 AM,-1.7,-8.5,73,30.64,10.0,Calm,Calm,-,N/A,,Clear,0,2013-12-07 13:35:00
7:55 AM,-1.3,-8.5,72,30.63,10.0,ENE,4.6,-,N/A,,Clear,70,2013-12-07 13:55:00
8:15 AM,-0.8,-8.0,72,30.63,10.0,East,6.9,-,N/A,,Clear,90,2013-12-07 14:15:00
8:35 AM,-0.4,-7.6,72,30.62,10.0,East,5.8,-,N/A,,Clear,80,2013-12-07 14:35:00
8:55 AM,0.1,-6.9,72,30.63,10.0,East,4.6,-,N/A,,Clear,90,2013-12-07 14:55:00
9:15 AM,1.0,-6.2,72,30.63,10.0,East,4.6,-,N/A,,Clear,100,2013-12-07 15:15:00
9:35 AM,1.8,-5.6,71,30.65,10.0,SE,4.6,-,N/A,,Clear,140,2013-12-07 15:35:00
9:55 AM,2.3,-5.1,71,30.64,10.0,SE,6.9,-,N/A,,Clear,140,2013-12-07 15:55:00
10:15 AM,2.8,-4.9,70,30.64,10.0,SE,5.8,-,N/A,,Scattered Clouds,140,2013-12-07 16:15:00
10:35 AM,3.2,-4.7,70,30.64,10.0,SE,8.1,-,N/A,,Scattered Clouds,140,2013-12-07 16:35:00
10:55 AM,4.1,-4.5,67,30.63,10.0,SSE,4.6,-,N/A,,Mostly Cloudy,150,2013-12-07 16:55:00
11:15 AM,4.5,-4.7,66,30.61,10.0,SE,5.8,-,N/A,,Mostly Cloudy,140,2013-12-07 17:15:00
11:35 AM,5.9,-4.5,62,30.60,10.0,SE,6.9,-,N/A,,Mostly Cloudy,130,2013-12-07 17:35:00
11:55 AM,6.8,-4.5,60,30.59,10.0,SSE,4.6,-,N/A,,Mostly Cloudy,150,2013-12-07 17:55:00
12:15 PM,7.2,-5.1,57,30.57,10.0,SE,5.8,-,N/A,,Mostly Cloudy,140,2013-12-07 18:15:00
12:35 PM,7.7,-5.1,56,30.56,10.0,SE,5.8,-,N/A,,Overcast,140,2013-12-07 18:35:00
12:55 PM,8.4,-4.9,55,30.54,10.0,SE,4.6,-,N/A,,Overcast,140,2013-12-07 18:55:00
1:15 PM,9.3,-4.5,54,30.53,10.0,SE,8.1,-,N/A,,Overcast,130,2013-12-07 19:15:00
1:35 PM,9.7,-4.9,52,30.51,10.0,SE,5.8,-,N/A,,Overcast,140,2013-12-07 19:35:00
1:55 PM,10.2,-5.3,50,30.49,10.0,SE,6.9,-,N/A,,Overcast,130,2013-12-07 19:55:00
2:15 PM,10.8,-4.9,49,30.47,10.0,ESE,8.1,-,N/A,,Overcast,120,2013-12-07 20:15:00
2:35 PM,10.9,-5.4,48,30.46,10.0,SE,6.9,-,N/A,,Overcast,140,2013-12-07 20:35:00
2:55 PM,11.1,-5.1,48,30.45,10.0,East,8.1,-,N/A,,Overcast,100,2013-12-07 20:55:00
3:15 PM,11.3,-5.6,47,30.42,10.0,ESE,10.4,-,N/A,,Mostly Cloudy,120,2013-12-07 21:15:00
3:35 PM,11.3,-5.1,48,30.42,10.0,ESE,9.2,-,N/A,,Clear,110,2013-12-07 21:35:00
3:55 PM,11.3,-5.1,48,30.40,10.0,East,11.5,-,N/A,,Scattered Clouds,100,2013-12-07 21:55:00
4:15 PM,11.3,-4.9,48,30.39,10.0,East,12.7,-,N/A,,Mostly Cloudy,100,2013-12-07 22:15:00
4:35 PM,11.3,-5.1,48,30.39,10.0,ESE,9.2,-,N/A,,Overcast,110,2013-12-07 22:35:00
4:55 PM,11.3,-5.1,48,30.39,10.0,East,12.7,-,N/A,,Overcast,100,2013-12-07 22:55:00
5:15 PM,11.3,-4.9,48,30.39,10.0,ESE,11.5,-,N/A,,Overcast,110,2013-12-07 23:15:00
5:35 PM,11.3,-4.4,49,30.40,10.0,ESE,10.4,-,N/A,,Overcast,120,2013-12-07 23:35:00
5:55 PM,11.1,-4.2,50,30.40,10.0,ESE,10.4,-,N/A,,Overcast,120,2013-12-07 23:55:00
6:15 PM,11.1,-4.0,51,30.39,10.0,ESE,10.4,-,N/A,,Overcast,110,2013-12-08 00:15:00
6:35 PM,10.9,-4.0,51,30.39,10.0,ESE,10.4,-,N/A,,Overcast,110,2013-12-08 00:35:00
6:55 PM,10.9,-3.1,53,30.39,7.0,East,11.5,-,N/A,Snow,Light Snow,100,2013-12-08 00:55:00
7:15 PM,10.2,0.7,65,30.39,3.0,East,12.7,-,N/A,Snow,Light Snow,100,2013-12-08 01:15:00
7:35 PM,9.5,3.0,75,30.39,2.5,ESE,12.7,-,N/A,Snow,Light Snow,110,2013-12-08 01:35:00
7:55 PM,9.3,4.1,79,30.39,2.0,East,12.7,-,N/A,Snow,Light Snow,100,2013-12-08 01:55:00
8:15 PM,9.3,4.6,81,30.37,2.5,ESE,12.7,-,N/A,Snow,Light Snow,110,2013-12-08 02:15:00
8:35 PM,9.1,4.6,82,30.37,1.8,East,12.7,-,N/A,Snow,Light Snow,100,2013-12-08 02:35:00
8:55 PM,8.8,4.6,83,30.36,2.0,East,12.7,-,N/A,Snow,Light Snow,90,2013-12-08 02:55:00
9:15 PM,8.6,4.5,83,30.36,2.5,East,12.7,-,N/A,Snow,Light Snow,100,2013-12-08 03:15:00
9:35 PM,8.6,4.5,83,30.34,2.5,East,13.8,-,N/A,Snow,Light Snow,100,2013-12-08 03:35:00
9:55 PM,8.6,4.5,83,30.34,2.5,East,12.7,-,N/A,Snow,Light Snow,100,2013-12-08 03:55:00
10:15 PM,9.0,4.8,83,30.32,2.5,East,12.7,-,N/A,Snow,Light Snow,100,2013-12-08 04:15:00
10:35 PM,9.1,5.0,83,30.32,2.5,East,13.8,-,N/A,Snow,Light Snow,100,2013-12-08 04:35:00
10:55 PM,9.1,5.0,83,30.30,2.5,ESE,13.8,-,N/A,Snow,Light Snow,110,2013-12-08 04:55:00
11:15 PM,9.1,4.8,83,30.29,2.5,ESE,13.8,-,N/A,Snow,Light Snow,110,2013-12-08 05:15:00
11:35 PM,9.0,4.6,83,30.28,2.5,ESE,13.8,-,N/A,Snow,Light Snow,110,2013-12-08 05:35:00
11:55 PM,8.6,4.5,83,30.27,3.0,ESE,15.0,-,N/A,Snow,Light Snow,110,2013-12-08 05:55:00